Time,TemperatureF,DewpointF,PressureIn,WindDirection,WindDirectionDegrees,WindSpeedMPH,WindSpeedGustMPH,Humidity,HourlyPrecipIn,Conditions,Clouds,dailyrainin,SolarRadiationWatts/m^2,SoftwareType,DateUTC
2013-04-11 00:00:00,71.7,58.0,29.95,SSW,195,0.0,3.0,62,0.00,,,0.00,0,WeatherCatV1.10B1570,2013-04-11 04:00:00,
2013-04-11 00:01:00,71.6,57.9,29.95,SSW,195,2.0,3.0,62,0.00,,,0.00,0,WeatherCatV1.10B1570,2013-04-11 04:01:00,
2013-04-11 00:06:00,71.5,58.2,29.95,South,191,3.0,3.0,63,0.00,,,0.00,0,WeatherCatV1.10B1570,2013-04-11 04:06:00,
2013-04-11 00:11:00,71.3,58.0,29.95,SSE,162,4.0,4.0,63,0.00,,,0.00,0,WeatherCatV1.10B1570,2013-04-11 04:11:00,
2013-04-11 00:16:00,71.3,58.5,29.95,SSW,208,2.0,3.0,64,0.00,,,0.00,0,WeatherCatV1.10B1570,2013-04-11 04:16:00,
2013-04-11 00:21:00,71.2,58.4,29.95,South,178,3.0,3.0,64,0.00,,,0.00,0,WeatherCatV1.10B1570,2013-04-11 04:21:00,
2013-04-11 00:26:00,71.1,58.7,29.95,SSW,195,1.0,2.0,65,0.00,,,0.00,0,WeatherCatV1.10B1570,2013-04-11 04:26:00,
2013-04-11 00:31:00,71.0,58.6,29.95,SSW,205,3.0,4.0,65,0.00,,,0.00,0,WeatherCatV1.10B1570,2013-04-11 04:31:00,
2013-04-11 00:36:00,71.0,58.6,29.95,SSW,207,2.0,6.0,65,0.00,,,0.00,0,WeatherCatV1.10B1570,2013-04-11 04:36:00,
2013-04-11 00:41:00,71.0,58.6,29.95,SSE,162,2.0,7.0,65,0.00,,,0.00,0,WeatherCatV1.10B1570,2013-04-11 04:41:00,
2013-04-11 00:46:00,70.9,58.5,29.95,SSW,195,2.0,3.0,65,0.00,,,0.00,0,WeatherCatV1.10B1570,2013-04-11 04:46:00,
2013-04-11 00:51:00,70.7,58.8,29.95,South,172,5.0,5.0,66,0.00,,,0.00,0,WeatherCatV1.10B1570,2013-04-11 04:51:00,
2013-04-11 00:56:00,70.7,58.8,29.95,SSW,201,4.0,4.0,66,0.00,,,0.00,0,WeatherCatV1.10B1570,2013-04-11 04:56:00,
2013-04-11 01:01:00,70.4,58.5,29.95,South,182,3.0,3.0,66,0.00,,,0.00,0,WeatherCatV1.10B1570,2013-04-11 05:01:00,
2013-04-11 01:06:00,70.2,58.7,29.95,SSW,193,3.0,5.0,67,0.00,,,0.00,0,WeatherCatV1.10B1570,2013-04-11 05:06:00,
2013-04-11 01:11:00,70.2,58.7,29.95,SSW,199,0.0,2.0,67,0.00,,,0.00,0,WeatherCatV1.10B1570,2013-04-11 05:11:00,
2013-04-11 01:16:00,70.0,58.5,29.96,SSW,194,1.0,3.0,67,0.00,,,0.00,0,WeatherCatV1.10B1570,2013-04-11 05:16:00,
2013-04-11 01:21:00,69.7,58.2,29.96,SSW,201,3.0,3.0,67,0.00,,,0.00,0,WeatherCatV1.10B1570,2013-04-11 05:21:00,
2013-04-11 01:26:00,69.6,58.6,29.95,SSW,199,1.0,3.0,68,0.00,,,0.00,0,WeatherCatV1.10B1570,2013-04-11 05:26:00,
2013-04-11 01:31:00,69.5,58.5,29.95,SSW,206,1.0,5.0,68,0.00,,,0.00,0,WeatherCatV1.10B1570,2013-04-11 05:31:00,
2013-04-11 01:36:00,69.3,58.3,29.96,SSW,204,2.0,4.0,68,0.00,,,0.00,0,WeatherCatV1.10B1570,2013-04-11 05:36:00,
2013-04-11 01:41:00,69.2,58.2,29.96,SSW,197,3.0,5.0,68,0.00,,,0.00,0,WeatherCatV1.10B1570,2013-04-11 05:41:00,
2013-04-11 01:46:00,69.1,58.1,29.96,SSW,194,5.0,6.0,68,0.00,,,0.00,0,WeatherCatV1.10B1570,2013-04-11 05:46:00,
2013-04-11 01:51:00,69.0,58.0,29.96,SSW,213,3.0,4.0,68,0.00,,,0.00,0,WeatherCatV1.10B1570,2013-04-11 05:51:00,
2013-04-11 01:56:00,68.9,57.9,29.96,SSW,196,2.0,5.0,68,0.00,,,0.00,0,WeatherCatV1.10B1570,2013-04-11 05:56:00,
2013-04-11 02:01:00,68.8,57.8,29.96,SSW,205,3.0,4.0,68,0.00,,,0.00,0,WeatherCatV1.10B1570,2013-04-11 06:01:00,
2013-04-11 02:06:00,68.6,57.6,29.95,SSW,203,2.0,5.0,68,0.00,,,0.00,0,WeatherCatV1.10B1570,2013-04-11 06:06:00,
2013-04-11 02:11:00,68.5,57.9,29.95,South,186,2.0,3.0,69,0.00,,,0.00,0,WeatherCatV1.10B1570,2013-04-11 06:11:00,
2013-04-11 02:16:00,68.4,57.8,29.95,SSW,195,3.0,4.0,69,0.00,,,0.00,0,WeatherCatV1.10B1570,2013-04-11 06:16:00,
2013-04-11 02:21:00,68.2,57.6,29.95,SW,219,3.0,5.0,69,0.00,,,0.00,0,WeatherCatV1.10B1570,2013-04-11 06:21:00,
2013-04-11 02:26:00,67.9,57.3,29.94,SSW,199,3.0,5.0,69,0.00,,,0.00,0,WeatherCatV1.10B1570,2013-04-11 06:26:00,
2013-04-11 02:31:00,67.8,57.6,29.94,SSW,199,2.0,5.0,70,0.00,,,0.00,0,WeatherCatV1.10B1570,2013-04-11 06:31:00,
2013-04-11 02:36:00,67.7,57.6,29.94,SSW,197,2.0,5.0,70,0.00,,,0.00,0,WeatherCatV1.10B1570,2013-04-11 06:36:00,
2013-04-11 02:41:00,67.5,57.4,29.94,SSE,148,4.0,7.0,70,0.00,,,0.00,0,WeatherCatV1.10B1570,2013-04-11 06:41:00,
2013-04-11 02:46:00,67.5,57.4,29.93,SSW,194,3.0,4.0,70,0.00,,,0.00,0,WeatherCatV1.10B1570,2013-04-11 06:46:00,
2013-04-11 02:51:00,67.3,57.2,29.93,SSW,195,2.0,4.0,70,0.00,,,0.00,0,WeatherCatV1.10B1570,2013-04-11 06:51:00,
2013-04-11 02:56:00,67.2,57.1,29.93,SSW,203,2.0,5.0,70,0.00,,,0.00,0,WeatherCatV1.10B1570,2013-04-11 06:56:00,
2013-04-11 03:01:00,66.9,57.2,29.94,SSW,197,2.0,4.0,71,0.00,,,0.00,0,WeatherCatV1.10B1570,2013-04-11 07:01:00,
2013-04-11 03:06:00,66.7,57.0,29.94,SSW,197,2.0,5.0,71,0.00,,,0.00,0,WeatherCatV1.10B1570,2013-04-11 07:06:00,
2013-04-11 03:11:00,66.6,56.9,29.94,SSW,199,3.0,5.0,71,0.00,,,0.00,0,WeatherCatV1.10B1570,2013-04-11 07:11:00,
2013-04-11 03:16:00,66.5,56.8,29.94,SSW,206,2.0,5.0,71,0.00,,,0.00,0,WeatherCatV1.10B1570,2013-04-11 07:16:00,
2013-04-11 03:21:00,66.4,57.1,29.93,SSW,193,4.0,6.0,72,0.00,,,0.00,0,WeatherCatV1.10B1570,2013-04-11 07:21:00,
2013-04-11 03:26:00,66.3,57.0,29.93,South,188,3.0,7.0,72,0.00,,,0.00,0,WeatherCatV1.10B1570,2013-04-11 07:26:00,
2013-04-11 03:31:00,66.2,56.9,29.93,SSW,197,2.0,4.0,72,0.00,,,0.00,0,WeatherCatV1.10B1570,2013-04-11 07:31:00,
2013-04-11 03:36:00,66.1,56.8,29.93,SE,134,1.0,5.0,72,0.00,,,0.00,0,WeatherCatV1.10B1570,2013-04-11 07:36:00,
2013-04-11 03:41:00,65.8,56.9,29.93,SSW,204,1.0,2.0,73,0.00,,,0.00,0,WeatherCatV1.10B1570,2013-04-11 07:41:00,
2013-04-11 03:46:00,65.7,56.8,29.93,South,185,3.0,3.0,73,0.00,,,0.00,0,WeatherCatV1.10B1570,2013-04-11 07:46:00,
2013-04-11 03:51:00,65.6,56.7,29.93,South,184,1.0,4.0,73,0.00,,,0.00,0,WeatherCatV1.10B1570,2013-04-11 07:51:00,
2013-04-11 03:56:00,65.4,56.5,29.94,SSW,199,2.0,4.0,73,0.00,,,0.00,0,WeatherCatV1.10B1570,2013-04-11 07:56:00,
2013-04-11 04:01:00,65.3,56.8,29.93,SSW,209,2.0,4.0,74,0.00,,,0.00,0,WeatherCatV1.10B1570,2013-04-11 08:01:00,
2013-04-11 04:06:00,65.2,56.7,29.94,SSW,193,3.0,5.0,74,0.00,,,0.00,0,WeatherCatV1.10B1570,2013-04-11 08:06:00,
2013-04-11 04:11:00,65.1,56.6,29.93,SSW,195,3.0,8.0,74,0.00,,,0.00,0,WeatherCatV1.10B1570,2013-04-11 08:11:00,
2013-04-11 04:16:00,65.1,56.6,29.93,SSW,203,2.0,4.0,74,0.00,,,0.00,0,WeatherCatV1.10B1570,2013-04-11 08:16:00,
2013-04-11 04:21:00,64.9,56.4,29.93,SSW,209,1.0,4.0,74,0.00,,,0.00,0,WeatherCatV1.10B1570,2013-04-11 08:21:00,
2013-04-11 04:26:00,64.7,56.6,29.93,SSW,201,4.0,4.0,75,0.00,,,0.00,0,WeatherCatV1.10B1570,2013-04-11 08:26:00,
2013-04-11 04:31:00,64.5,56.4,29.93,South,189,2.0,5.0,75,0.00,,,0.00,0,WeatherCatV1.10B1570,2013-04-11 08:31:00,
2013-04-11 04:36:00,64.4,56.7,29.93,SSW,207,3.0,6.0,76,0.00,,,0.00,0,WeatherCatV1.10B1570,2013-04-11 08:36:00,
2013-04-11 04:41:00,64.3,56.6,29.93,SSW,194,1.0,2.0,76,0.00,,,0.00,0,WeatherCatV1.10B1570,2013-04-11 08:41:00,
2013-04-11 04:46:00,64.1,56.7,29.94,South,184,3.0,6.0,77,0.00,,,0.00,0,WeatherCatV1.10B1570,2013-04-11 08:46:00,
2013-04-11 04:51:00,64.0,56.6,29.94,South,189,3.0,6.0,77,0.00,,,0.00,0,WeatherCatV1.10B1570,2013-04-11 08:51:00,
2013-04-11 04:56:00,63.8,56.4,29.94,SSW,192,1.0,4.0,77,0.00,,,0.00,0,WeatherCatV1.10B1570,2013-04-11 08:56:00,
2013-04-11 05:01:00,63.6,56.6,29.94,South,191,2.0,4.0,78,0.00,,,0.00,0,WeatherCatV1.10B1570,2013-04-11 09:01:00,
2013-04-11 05:06:00,63.5,56.9,29.94,SSW,196,5.0,5.0,79,0.00,,,0.00,0,WeatherCatV1.10B1570,2013-04-11 09:06:00,
2013-04-11 05:11:00,63.4,56.8,29.93,SSW,195,2.0,3.0,79,0.00,,,0.00,0,WeatherCatV1.10B1570,2013-04-11 09:11:00,
2013-04-11 05:16:00,63.2,56.6,29.94,SSW,197,3.0,6.0,79,0.00,,,0.00,0,WeatherCatV1.10B1570,2013-04-11 09:16:00,
2013-04-11 05:21:00,63.1,56.8,29.94,South,184,2.0,5.0,80,0.00,,,0.00,0,WeatherCatV1.10B1570,2013-04-11 09:21:00,
2013-04-11 05:26:00,63.0,56.7,29.94,SSW,195,2.0,4.0,80,0.00,,,0.00,0,WeatherCatV1.10B1570,2013-04-11 09:26:00,
2013-04-11 05:31:00,62.9,56.6,29.94,SSW,202,1.0,3.0,80,0.00,,,0.00,0,WeatherCatV1.10B1570,2013-04-11 09:31:00,
2013-04-11 05:36:00,62.7,56.8,29.94,SSW,204,4.0,5.0,81,0.00,,,0.00,0,WeatherCatV1.10B1570,2013-04-11 09:36:00,
2013-04-11 05:41:00,62.6,56.7,29.94,South,186,5.0,5.0,81,0.00,,,0.00,0,WeatherCatV1.10B1570,2013-04-11 09:41:00,
2013-04-11 05:46:00,62.6,57.0,29.94,SSW,197,3.0,3.0,82,0.00,,,0.00,0,WeatherCatV1.10B1570,2013-04-11 09:46:00,
2013-04-11 05:51:00,62.5,56.9,29.94,SSW,195,1.0,4.0,82,0.00,,,0.00,0,WeatherCatV1.10B1570,2013-04-11 09:51:00,
2013-04-11 05:56:00,62.3,56.7,29.94,SSW,204,2.0,3.0,82,0.00,,,0.00,0,WeatherCatV1.10B1570,2013-04-11 09:56:00,
2013-04-11 06:01:00,62.2,57.0,29.94,SSW,195,2.0,2.0,83,0.00,,,0.00,0,WeatherCatV1.10B1570,2013-04-11 10:01:00,
2013-04-11 06:06:00,62.1,56.9,29.94,SSW,195,2.0,2.0,83,0.00,,,0.00,0,WeatherCatV1.10B1570,2013-04-11 10:06:00,
2013-04-11 06:11:00,61.9,56.7,29.94,SSW,195,1.0,2.0,83,0.00,,,0.00,0,WeatherCatV1.10B1570,2013-04-11 10:11:00,
2013-04-11 06:16:00,61.8,56.9,29.95,SSW,197,2.0,3.0,84,0.00,,,0.00,0,WeatherCatV1.10B1570,2013-04-11 10:16:00,
2013-04-11 06:21:00,61.7,56.8,29.95,SSW,197,1.0,2.0,84,0.00,,,0.00,0,WeatherCatV1.10B1570,2013-04-11 10:21:00,
2013-04-11 06:26:00,61.6,57.0,29.95,SSW,203,2.0,3.0,85,0.00,,,0.00,0,WeatherCatV1.10B1570,2013-04-11 10:26:00,
2013-04-11 06:31:00,61.5,56.9,29.95,SSW,203,1.0,2.0,85,0.00,,,0.00,0,WeatherCatV1.10B1570,2013-04-11 10:31:00,
2013-04-11 06:36:00,61.3,56.7,29.95,SSW,203,2.0,2.0,85,0.00,,,0.00,0,WeatherCatV1.10B1570,2013-04-11 10:36:00,
2013-04-11 06:41:00,61.2,56.7,29.95,SSW,202,3.0,3.0,85,0.00,,,0.00,0,WeatherCatV1.10B1570,2013-04-11 10:41:00,
2013-04-11 06:46:00,61.2,57.0,29.95,SSW,195,2.0,2.0,86,0.00,,,0.00,5,WeatherCatV1.10B1570,2013-04-11 10:46:00,
2013-04-11 06:51:00,61.2,57.0,29.96,SSW,199,3.0,3.0,86,0.00,,,0.00,5,WeatherCatV1.10B1570,2013-04-11 10:51:00,
2013-04-11 06:56:00,61.1,56.9,29.96,SSW,197,1.0,3.0,86,0.00,,,0.00,7,WeatherCatV1.10B1570,2013-04-11 10:56:00,
2013-04-11 07:01:00,61.1,56.9,29.96,SSW,211,3.0,4.0,86,0.00,,,0.00,11,WeatherCatV1.10B1570,2013-04-11 11:01:00,
2013-04-11 07:06:00,61.1,56.9,29.96,South,182,2.0,3.0,86,0.00,,,0.00,16,WeatherCatV1.10B1570,2013-04-11 11:06:00,
2013-04-11 07:11:00,61.1,57.2,29.96,South,188,2.0,4.0,87,0.00,,,0.00,25,WeatherCatV1.10B1570,2013-04-11 11:11:00,
2013-04-11 07:16:00,61.1,57.2,29.96,SSW,195,1.0,3.0,87,0.00,,,0.00,30,WeatherCatV1.10B1570,2013-04-11 11:16:00,
2013-04-11 07:21:00,61.2,57.3,29.97,SSW,197,2.0,3.0,87,0.00,,,0.00,37,WeatherCatV1.10B1570,2013-04-11 11:21:00,
2013-04-11 07:26:00,61.2,57.3,29.97,SSW,198,3.0,3.0,87,0.00,,,0.00,42,WeatherCatV1.10B1570,2013-04-11 11:26:00,
2013-04-11 07:31:00,61.3,57.4,29.97,South,189,2.0,3.0,87,0.00,,,0.00,49,WeatherCatV1.10B1570,2013-04-11 11:31:00,
2013-04-11 07:36:00,61.3,57.4,29.97,SSW,199,1.0,3.0,87,0.00,,,0.00,65,WeatherCatV1.10B1570,2013-04-11 11:36:00,
2013-04-11 07:41:00,61.5,57.6,29.97,SSW,201,2.0,4.0,87,0.00,,,0.00,69,WeatherCatV1.10B1570,2013-04-11 11:41:00,
2013-04-11 07:46:00,61.7,57.8,29.98,SSW,197,2.0,4.0,87,0.00,,,0.00,79,WeatherCatV1.10B1570,2013-04-11 11:46:00,
2013-04-11 07:51:00,61.9,58.0,29.97,SSW,202,2.0,7.0,87,0.00,,,0.00,90,WeatherCatV1.10B1570,2013-04-11 11:51:00,
2013-04-11 07:56:00,62.1,58.2,29.97,SSW,199,3.0,5.0,87,0.00,,,0.00,98,WeatherCatV1.10B1570,2013-04-11 11:56:00,
2013-04-11 08:01:00,62.3,58.1,29.97,SSW,207,2.0,3.0,86,0.00,,,0.00,97,WeatherCatV1.10B1570,2013-04-11 12:01:00,
2013-04-11 08:06:00,62.5,58.2,29.97,SSW,203,5.0,7.0,86,0.00,,,0.00,77,WeatherCatV1.10B1570,2013-04-11 12:06:00,
2013-04-11 08:11:00,62.6,58.3,29.97,SSW,195,4.0,6.0,86,0.00,,,0.00,105,WeatherCatV1.10B1570,2013-04-11 12:11:00,
2013-04-11 08:16:00,62.8,58.5,29.97,South,170,3.0,5.0,86,0.00,,,0.00,169,WeatherCatV1.10B1570,2013-04-11 12:16:00,
2013-04-11 08:21:00,63.0,58.7,29.98,SW,219,6.0,8.0,86,0.00,,,0.00,100,WeatherCatV1.10B1570,2013-04-11 12:21:00,
2013-04-11 08:26:00,63.1,58.5,29.98,SSW,202,3.0,6.0,85,0.00,,,0.00,123,WeatherCatV1.10B1570,2013-04-11 12:26:00,
2013-04-11 08:31:00,63.2,58.9,29.98,SSW,206,4.0,5.0,86,0.00,,,0.00,229,WeatherCatV1.10B1570,2013-04-11 12:31:00,
2013-04-11 08:36:00,63.5,59.2,29.98,SSW,205,3.0,3.0,86,0.00,,,0.00,162,WeatherCatV1.10B1570,2013-04-11 12:36:00,
2013-04-11 08:41:00,63.9,59.3,29.98,SSW,194,4.0,7.0,85,0.00,,,0.00,232,WeatherCatV1.10B1570,2013-04-11 12:41:00,
2013-04-11 08:46:00,64.2,59.3,29.98,South,184,5.0,5.0,84,0.00,,,0.00,200,WeatherCatV1.10B1570,2013-04-11 12:46:00,
2013-04-11 08:51:00,64.5,59.6,29.98,SSW,195,1.0,4.0,84,0.00,,,0.00,329,WeatherCatV1.10B1570,2013-04-11 12:51:00,
2013-04-11 08:56:00,65.0,60.0,29.98,SW,216,4.0,4.0,84,0.00,,,0.00,258,WeatherCatV1.10B1570,2013-04-11 12:56:00,
2013-04-11 09:01:00,65.6,59.9,29.98,SSW,201,1.0,3.0,82,0.00,,,0.00,163,WeatherCatV1.10B1570,2013-04-11 13:01:00,
2013-04-11 09:06:00,66.0,60.3,29.98,SSW,193,3.0,4.0,82,0.00,,,0.00,181,WeatherCatV1.10B1570,2013-04-11 13:06:00,
2013-04-11 09:11:00,66.2,60.2,29.98,SSW,201,5.0,5.0,81,0.00,,,0.00,237,WeatherCatV1.10B1570,2013-04-11 13:11:00,
2013-04-11 09:16:00,66.3,60.3,29.98,SSE,160,4.0,5.0,81,0.00,,,0.00,221,WeatherCatV1.10B1570,2013-04-11 13:16:00,
2013-04-11 09:21:00,66.1,60.1,29.98,SSE,151,5.0,7.0,81,0.00,,,0.00,200,WeatherCatV1.10B1570,2013-04-11 13:21:00,
2013-04-11 09:26:00,66.1,60.1,29.98,SSW,202,2.0,3.0,81,0.00,,,0.00,120,WeatherCatV1.10B1570,2013-04-11 13:26:00,
2013-04-11 09:31:00,66.1,60.1,29.98,SSW,197,3.0,5.0,81,0.00,,,0.00,200,WeatherCatV1.10B1570,2013-04-11 13:31:00,
2013-04-11 09:36:00,66.3,60.6,29.98,SSW,209,4.0,4.0,82,0.00,,,0.00,274,WeatherCatV1.10B1570,2013-04-11 13:36:00,
2013-04-11 09:41:00,66.7,60.7,29.98,South,191,1.0,3.0,81,0.00,,,0.00,250,WeatherCatV1.10B1570,2013-04-11 13:41:00,
2013-04-11 09:46:00,67.2,60.8,29.98,SSW,209,2.0,5.0,80,0.00,,,0.00,225,WeatherCatV1.10B1570,2013-04-11 13:46:00,
2013-04-11 09:51:00,67.4,60.7,29.98,SW,218,3.0,5.0,79,0.00,,,0.00,243,WeatherCatV1.10B1570,2013-04-11 13:51:00,
2013-04-11 09:56:00,67.5,60.7,29.98,SSW,194,1.0,6.0,79,0.00,,,0.00,246,WeatherCatV1.10B1570,2013-04-11 13:56:00,
2013-04-11 10:01:00,67.5,60.7,29.98,SSW,200,1.0,5.0,79,0.00,,,0.00,297,WeatherCatV1.10B1570,2013-04-11 14:01:00,
2013-04-11 10:06:00,67.8,61.4,29.97,SSE,166,7.0,7.0,80,0.00,,,0.00,320,WeatherCatV1.10B1570,2013-04-11 14:06:00,
2013-04-11 10:11:00,67.9,61.1,29.97,SSW,202,4.0,6.0,79,0.00,,,0.00,357,WeatherCatV1.10B1570,2013-04-11 14:11:00,
2013-04-11 10:16:00,68.4,61.3,29.97,SSW,203,2.0,4.0,78,0.00,,,0.00,338,WeatherCatV1.10B1570,2013-04-11 14:16:00,
2013-04-11 10:21:00,69.0,61.5,29.97,SSW,202,3.0,3.0,77,0.00,,,0.00,230,WeatherCatV1.10B1570,2013-04-11 14:21:00,
2013-04-11 10:26:00,69.2,61.3,29.98,West,269,6.0,9.0,76,0.00,,,0.00,408,WeatherCatV1.10B1570,2013-04-11 14:26:00,
2013-04-11 10:31:00,69.5,61.6,29.97,SSW,192,2.0,3.0,76,0.00,,,0.00,380,WeatherCatV1.10B1570,2013-04-11 14:31:00,
2013-04-11 10:36:00,69.9,61.6,29.98,SSW,204,2.0,4.0,75,0.00,,,0.00,294,WeatherCatV1.10B1570,2013-04-11 14:36:00,
2013-04-11 10:41:00,70.2,61.5,29.98,South,170,3.0,9.0,74,0.00,,,0.00,318,WeatherCatV1.10B1570,2013-04-11 14:41:00,
2013-04-11 10:46:00,70.1,61.4,29.98,SW,232,6.0,6.0,74,0.00,,,0.00,318,WeatherCatV1.10B1570,2013-04-11 14:46:00,
2013-04-11 10:51:00,70.2,61.9,29.98,SSW,199,2.0,5.0,75,0.00,,,0.00,413,WeatherCatV1.10B1570,2013-04-11 14:51:00,
2013-04-11 10:56:00,70.7,61.6,29.98,South,189,7.0,7.0,73,0.00,,,0.00,369,WeatherCatV1.10B1570,2013-04-11 14:56:00,
2013-04-11 11:01:00,70.9,61.8,29.98,SSW,196,4.0,8.0,73,0.00,,,0.00,322,WeatherCatV1.10B1570,2013-04-11 15:01:00,
2013-04-11 11:06:00,71.1,61.6,29.97,SSW,201,4.0,5.0,72,0.00,,,0.00,332,WeatherCatV1.10B1570,2013-04-11 15:06:00,
2013-04-11 11:11:00,71.2,61.7,29.97,SSW,199,4.0,4.0,72,0.00,,,0.00,243,WeatherCatV1.10B1570,2013-04-11 15:11:00,
2013-04-11 11:16:00,71.5,62.0,29.97,SW,228,2.0,6.0,72,0.00,,,0.00,225,WeatherCatV1.10B1570,2013-04-11 15:16:00,
2013-04-11 11:21:00,71.8,62.3,29.97,SW,218,2.0,5.0,72,0.00,,,0.00,350,WeatherCatV1.10B1570,2013-04-11 15:21:00,
2013-04-11 11:26:00,71.9,62.0,29.97,SSW,207,3.0,9.0,71,0.00,,,0.00,944,WeatherCatV1.10B1570,2013-04-11 15:26:00,
2013-04-11 11:31:00,71.9,62.0,29.97,SSW,207,4.0,10.0,71,0.00,,,0.00,983,WeatherCatV1.10B1570,2013-04-11 15:31:00,
2013-04-11 11:36:00,72.0,61.7,29.97,SSW,193,8.0,10.0,70,0.00,,,0.00,295,WeatherCatV1.10B1570,2013-04-11 15:36:00,
2013-04-11 11:41:00,71.9,62.4,29.97,SW,214,1.0,4.0,72,0.00,,,0.00,578,WeatherCatV1.10B1570,2013-04-11 15:41:00,
2013-04-11 11:46:00,72.2,62.3,29.96,SSE,160,7.0,7.0,71,0.00,,,0.00,269,WeatherCatV1.10B1570,2013-04-11 15:46:00,
2013-04-11 11:51:00,72.6,62.6,29.96,SSW,204,2.0,5.0,71,0.00,,,0.00,886,WeatherCatV1.10B1570,2013-04-11 15:51:00,
2013-04-11 11:56:00,73.4,62.6,29.96,SSW,198,3.0,4.0,69,0.00,,,0.00,967,WeatherCatV1.10B1570,2013-04-11 15:56:00,
2013-04-11 12:01:00,74.2,62.9,29.95,SSE,166,4.0,6.0,68,0.00,,,0.00,724,WeatherCatV1.10B1570,2013-04-11 16:01:00,
2013-04-11 12:06:00,74.4,62.3,29.95,SSW,203,3.0,4.0,66,0.00,,,0.00,587,WeatherCatV1.10B1570,2013-04-11 16:06:00,
2013-04-11 12:11:00,74.4,62.7,29.95,SSE,162,4.0,5.0,67,0.00,,,0.00,682,WeatherCatV1.10B1570,2013-04-11 16:11:00,
2013-04-11 12:16:00,74.9,62.8,29.95,SSW,192,2.0,8.0,66,0.00,,,0.00,891,WeatherCatV1.10B1570,2013-04-11 16:16:00,
2013-04-11 12:21:00,75.3,62.7,29.95,SSW,209,5.0,5.0,65,0.00,,,0.00,951,WeatherCatV1.10B1570,2013-04-11 16:21:00,
2013-04-11 12:26:00,75.8,63.2,29.94,SSW,198,7.0,8.0,65,0.00,,,0.00,963,WeatherCatV1.10B1570,2013-04-11 16:26:00,
2013-04-11 12:31:00,76.2,63.1,29.94,SSW,202,8.0,8.0,64,0.00,,,0.00,1030,WeatherCatV1.10B1570,2013-04-11 16:31:00,
2013-04-11 12:36:00,75.9,62.8,29.94,South,180,8.0,9.0,64,0.00,,,0.00,710,WeatherCatV1.10B1570,2013-04-11 16:36:00,
2013-04-11 12:41:00,75.6,62.5,29.93,SSE,163,8.0,8.0,64,0.00,,,0.00,673,WeatherCatV1.10B1570,2013-04-11 16:41:00,
2013-04-11 12:46:00,74.6,62.5,29.94,SSW,200,4.0,8.0,66,0.00,,,0.00,343,WeatherCatV1.10B1570,2013-04-11 16:46:00,
2013-04-11 12:51:00,74.6,62.0,29.93,SSW,193,3.0,7.0,65,0.00,,,0.00,577,WeatherCatV1.10B1570,2013-04-11 16:51:00,
2013-04-11 12:56:00,75.5,62.9,29.93,SSW,197,4.0,6.0,65,0.00,,,0.00,889,WeatherCatV1.10B1570,2013-04-11 16:56:00,
2013-04-11 13:01:00,76.2,63.6,29.93,SSW,192,3.0,5.0,65,0.00,,,0.00,772,WeatherCatV1.10B1570,2013-04-11 17:01:00,
2013-04-11 13:06:00,76.5,62.5,29.92,SSW,209,5.0,9.0,62,0.00,,,0.00,334,WeatherCatV1.10B1570,2013-04-11 17:06:00,
2013-04-11 13:11:00,75.9,62.4,29.92,SSW,200,2.0,3.0,63,0.00,,,0.00,420,WeatherCatV1.10B1570,2013-04-11 17:11:00,
2013-04-11 13:16:00,75.9,62.4,29.92,SSW,209,3.0,5.0,63,0.00,,,0.00,459,WeatherCatV1.10B1570,2013-04-11 17:16:00,
2013-04-11 13:21:00,76.0,62.5,29.92,SSW,204,3.0,7.0,63,0.00,,,0.00,397,WeatherCatV1.10B1570,2013-04-11 17:21:00,
2013-04-11 13:26:00,75.9,61.5,29.92,SW,230,3.0,7.0,61,0.00,,,0.00,264,WeatherCatV1.10B1570,2013-04-11 17:26:00,
2013-04-11 13:31:00,75.9,61.5,29.92,SW,228,1.0,7.0,61,0.00,,,0.00,267,WeatherCatV1.10B1570,2013-04-11 17:31:00,
2013-04-11 13:36:00,75.6,60.7,29.91,SSW,203,4.0,8.0,60,0.00,,,0.00,309,WeatherCatV1.10B1570,2013-04-11 17:36:00,
2013-04-11 13:41:00,75.4,61.0,29.91,SSW,205,4.0,7.0,61,0.00,,,0.00,369,WeatherCatV1.10B1570,2013-04-11 17:41:00,
2013-04-11 13:46:00,75.3,60.9,29.92,SW,221,3.0,5.0,61,0.00,,,0.00,425,WeatherCatV1.10B1570,2013-04-11 17:46:00,
2013-04-11 13:51:00,75.7,61.3,29.91,SSW,199,4.0,7.0,61,0.00,,,0.00,464,WeatherCatV1.10B1570,2013-04-11 17:51:00,
2013-04-11 13:56:00,76.2,61.3,29.91,SW,233,2.0,4.0,60,0.00,,,0.00,661,WeatherCatV1.10B1570,2013-04-11 17:56:00,
2013-04-11 14:01:00,77.1,61.2,29.90,SSW,197,3.0,5.0,58,0.00,,,0.00,761,WeatherCatV1.10B1570,2013-04-11 18:01:00,
2013-04-11 14:06:00,77.6,61.1,29.90,South,171,3.0,3.0,57,0.00,,,0.00,504,WeatherCatV1.10B1570,2013-04-11 18:06:00,
2013-04-11 14:11:00,78.0,60.5,29.90,SSW,212,3.0,10.0,55,0.00,,,0.00,977,WeatherCatV1.10B1570,2013-04-11 18:11:00,
2013-04-11 14:16:00,78.2,61.2,29.90,SSW,193,5.0,7.0,56,0.00,,,0.00,914,WeatherCatV1.10B1570,2013-04-11 18:16:00,
2013-04-11 14:21:00,78.3,60.8,29.89,SSW,197,3.0,9.0,55,0.00,,,0.00,937,WeatherCatV1.10B1570,2013-04-11 18:21:00,
2013-04-11 14:26:00,78.5,60.4,29.89,SSW,202,5.0,8.0,54,0.00,,,0.00,963,WeatherCatV1.10B1570,2013-04-11 18:26:00,
2013-04-11 14:31:00,78.4,60.9,29.89,South,170,5.0,8.0,55,0.00,,,0.00,963,WeatherCatV1.10B1570,2013-04-11 18:31:00,
2013-04-11 14:36:00,78.5,61.0,29.89,SSE,161,3.0,5.0,55,0.00,,,0.00,837,WeatherCatV1.10B1570,2013-04-11 18:36:00,
2013-04-11 14:41:00,79.3,60.7,29.88,SSW,206,2.0,5.0,53,0.00,,,0.00,417,WeatherCatV1.10B1570,2013-04-11 18:41:00,
2013-04-11 14:46:00,80.0,60.2,29.88,SSE,166,7.0,9.0,51,0.00,,,0.00,652,WeatherCatV1.10B1570,2013-04-11 18:46:00,
2013-04-11 14:51:00,79.0,59.3,29.88,SSW,193,2.0,7.0,51,0.00,,,0.00,338,WeatherCatV1.10B1570,2013-04-11 18:51:00,
2013-04-11 14:56:00,78.5,59.4,29.87,South,190,3.0,7.0,52,0.00,,,0.00,380,WeatherCatV1.10B1570,2013-04-11 18:56:00,
2013-04-11 15:01:00,78.3,58.7,29.87,WSW,245,2.0,8.0,51,0.00,,,0.00,721,WeatherCatV1.10B1570,2013-04-11 19:01:00,
2013-04-11 15:06:00,79.3,59.6,29.87,SSW,211,3.0,10.0,51,0.00,,,0.00,339,WeatherCatV1.10B1570,2013-04-11 19:06:00,
2013-04-11 15:11:00,80.1,60.3,29.87,SW,232,1.0,11.0,51,0.00,,,0.00,853,WeatherCatV1.10B1570,2013-04-11 19:11:00,
2013-04-11 15:16:00,80.2,59.3,29.87,SSW,194,7.0,13.0,49,0.00,,,0.00,715,WeatherCatV1.10B1570,2013-04-11 19:16:00,
2013-04-11 15:21:00,80.1,59.2,29.86,SW,216,8.0,9.0,49,0.00,,,0.00,925,WeatherCatV1.10B1570,2013-04-11 19:21:00,
2013-04-11 15:26:00,80.5,58.4,29.86,SSW,204,7.0,11.0,47,0.00,,,0.00,918,WeatherCatV1.10B1570,2013-04-11 19:26:00,
2013-04-11 15:31:00,79.8,57.8,29.86,SSW,213,3.0,11.0,47,0.00,,,0.00,276,WeatherCatV1.10B1570,2013-04-11 19:31:00,
2013-04-11 15:36:00,80.1,59.2,29.86,SW,218,2.0,8.0,49,0.00,,,0.00,886,WeatherCatV1.10B1570,2013-04-11 19:36:00,
2013-04-11 15:41:00,81.4,59.8,29.86,South,173,2.0,5.0,48,0.00,,,0.00,889,WeatherCatV1.10B1570,2013-04-11 19:41:00,
2013-04-11 15:46:00,81.3,59.1,29.85,SSE,156,3.0,8.0,47,0.00,,,0.00,204,WeatherCatV1.10B1570,2013-04-11 19:46:00,
2013-04-11 15:51:00,80.3,58.8,29.85,SSW,202,8.0,8.0,48,0.00,,,0.00,206,WeatherCatV1.10B1570,2013-04-11 19:51:00,
2013-04-11 15:56:00,80.1,59.2,29.85,SSE,165,5.0,6.0,49,0.00,,,0.00,250,WeatherCatV1.10B1570,2013-04-11 19:56:00,
2013-04-11 16:01:00,80.5,58.4,29.84,SSW,193,4.0,8.0,47,0.00,,,0.00,751,WeatherCatV1.10B1570,2013-04-11 20:01:00,
2013-04-11 16:06:00,80.4,57.7,29.84,WSW,249,1.0,4.0,46,0.00,,,0.00,455,WeatherCatV1.10B1570,2013-04-11 20:06:00,
2013-04-11 16:11:00,80.5,58.4,29.83,South,170,5.0,5.0,47,0.00,,,0.00,557,WeatherCatV1.10B1570,2013-04-11 20:11:00,
2013-04-11 16:16:00,80.4,58.3,29.83,SSW,210,2.0,11.0,47,0.00,,,0.00,643,WeatherCatV1.10B1570,2013-04-11 20:16:00,
2013-04-11 16:21:00,81.1,58.3,29.83,SW,217,5.0,7.0,46,0.00,,,0.00,712,WeatherCatV1.10B1570,2013-04-11 20:21:00,
2013-04-11 16:26:00,81.5,58.7,29.83,SSW,200,4.0,5.0,46,0.00,,,0.00,329,WeatherCatV1.10B1570,2013-04-11 20:26:00,
2013-04-11 16:31:00,81.3,58.5,29.82,South,191,3.0,6.0,46,0.00,,,0.00,281,WeatherCatV1.10B1570,2013-04-11 20:31:00,
2013-04-11 16:36:00,80.8,59.2,29.82,South,179,3.0,3.0,48,0.00,,,0.00,573,WeatherCatV1.10B1570,2013-04-11 20:36:00,
2013-04-11 16:41:00,81.2,59.0,29.82,SSW,209,2.0,4.0,47,0.00,,,0.00,441,WeatherCatV1.10B1570,2013-04-11 20:41:00,
2013-04-11 16:46:00,81.4,59.2,29.81,South,175,3.0,5.0,47,0.00,,,0.00,330,WeatherCatV1.10B1570,2013-04-11 20:46:00,
2013-04-11 16:51:00,80.9,58.8,29.81,SW,218,2.0,5.0,47,0.00,,,0.00,272,WeatherCatV1.10B1570,2013-04-11 20:51:00,
2013-04-11 16:56:00,80.3,58.8,29.81,SSW,206,3.0,7.0,48,0.00,,,0.00,329,WeatherCatV1.10B1570,2013-04-11 20:56:00,
2013-04-11 17:01:00,79.8,58.9,29.81,South,188,3.0,7.0,49,0.00,,,0.00,248,WeatherCatV1.10B1570,2013-04-11 21:01:00,
2013-04-11 17:06:00,79.6,59.3,29.81,SSE,161,4.0,7.0,50,0.00,,,0.00,285,WeatherCatV1.10B1570,2013-04-11 21:06:00,
2013-04-11 17:11:00,79.1,58.8,29.81,SSE,167,9.0,10.0,50,0.00,,,0.00,350,WeatherCatV1.10B1570,2013-04-11 21:11:00,
2013-04-11 17:16:00,79.2,59.5,29.81,SSW,201,5.0,6.0,51,0.00,,,0.00,355,WeatherCatV1.10B1570,2013-04-11 21:16:00,
2013-04-11 17:21:00,79.5,59.8,29.81,South,187,5.0,5.0,51,0.00,,,0.00,464,WeatherCatV1.10B1570,2013-04-11 21:21:00,
2013-04-11 17:26:00,80.0,60.2,29.81,SSW,202,2.0,3.0,51,0.00,,,0.00,213,WeatherCatV1.10B1570,2013-04-11 21:26:00,
2013-04-11 17:31:00,80.0,60.2,29.81,SSW,207,5.0,7.0,51,0.00,,,0.00,160,WeatherCatV1.10B1570,2013-04-11 21:31:00,
2013-04-11 17:36:00,79.3,59.0,29.81,SSE,168,7.0,8.0,50,0.00,,,0.00,179,WeatherCatV1.10B1570,2013-04-11 21:36:00,
2013-04-11 17:41:00,78.7,59.6,29.80,South,169,5.0,7.0,52,0.00,,,0.00,193,WeatherCatV1.10B1570,2013-04-11 21:41:00,
2013-04-11 17:46:00,78.5,59.4,29.80,SSW,202,2.0,5.0,52,0.00,,,0.00,193,WeatherCatV1.10B1570,2013-04-11 21:46:00,
2013-04-11 17:51:00,78.7,60.1,29.80,SSW,211,3.0,4.0,53,0.00,,,0.00,285,WeatherCatV1.10B1570,2013-04-11 21:51:00,
2013-04-11 17:56:00,78.9,59.8,29.80,SW,218,5.0,10.0,52,0.00,,,0.00,315,WeatherCatV1.10B1570,2013-04-11 21:56:00,
2013-04-11 18:01:00,78.9,60.3,29.80,SSE,158,5.0,7.0,53,0.00,,,0.00,207,WeatherCatV1.10B1570,2013-04-11 22:01:00,
2013-04-11 18:06:00,78.7,60.1,29.80,SSE,151,3.0,8.0,53,0.00,,,0.00,241,WeatherCatV1.10B1570,2013-04-11 22:06:00,
2013-04-11 18:11:00,78.7,60.6,29.80,South,191,5.0,5.0,54,0.00,,,0.00,144,WeatherCatV1.10B1570,2013-04-11 22:11:00,
2013-04-11 18:16:00,78.5,59.9,29.80,South,178,3.0,7.0,53,0.00,,,0.00,253,WeatherCatV1.10B1570,2013-04-11 22:16:00,
2013-04-11 18:21:00,78.5,59.9,29.80,SSW,206,2.0,7.0,53,0.00,,,0.00,227,WeatherCatV1.10B1570,2013-04-11 22:21:00,
2013-04-11 18:26:00,78.5,59.9,29.80,South,181,3.0,7.0,53,0.00,,,0.00,156,WeatherCatV1.10B1570,2013-04-11 22:26:00,
2013-04-11 18:31:00,78.7,60.1,29.80,SSE,155,7.0,8.0,53,0.00,,,0.00,132,WeatherCatV1.10B1570,2013-04-11 22:31:00,
2013-04-11 18:36:00,78.5,59.9,29.80,SSE,164,5.0,7.0,53,0.00,,,0.00,91,WeatherCatV1.10B1570,2013-04-11 22:36:00,
2013-04-11 18:41:00,78.2,60.2,29.80,SSW,201,4.0,9.0,54,0.00,,,0.00,81,WeatherCatV1.10B1570,2013-04-11 22:41:00,
2013-04-11 18:46:00,78.1,60.1,29.80,SSW,201,4.0,4.0,54,0.00,,,0.00,70,WeatherCatV1.10B1570,2013-04-11 22:46:00,
2013-04-11 18:51:00,77.8,59.8,29.80,South,170,5.0,5.0,54,0.00,,,0.00,74,WeatherCatV1.10B1570,2013-04-11 22:51:00,
2013-04-11 18:56:00,77.7,59.7,29.80,SSE,165,4.0,5.0,54,0.00,,,0.00,56,WeatherCatV1.10B1570,2013-04-11 22:56:00,
2013-04-11 19:01:00,77.6,59.6,29.80,South,176,5.0,7.0,54,0.00,,,0.00,35,WeatherCatV1.10B1570,2013-04-11 23:01:00,
2013-04-11 19:06:00,77.5,59.5,29.80,SSW,195,4.0,7.0,54,0.00,,,0.00,26,WeatherCatV1.10B1570,2013-04-11 23:06:00,
2013-04-11 19:11:00,77.4,59.9,29.80,South,186,3.0,6.0,55,0.00,,,0.00,33,WeatherCatV1.10B1570,2013-04-11 23:11:00,
2013-04-11 19:16:00,77.4,59.9,29.80,South,181,3.0,5.0,55,0.00,,,0.00,32,WeatherCatV1.10B1570,2013-04-11 23:16:00,
2013-04-11 19:21:00,77.2,59.8,29.80,SSW,197,3.0,4.0,55,0.00,,,0.00,28,WeatherCatV1.10B1570,2013-04-11 23:21:00,
2013-04-11 19:26:00,77.1,59.7,29.80,South,189,3.0,5.0,55,0.00,,,0.00,18,WeatherCatV1.10B1570,2013-04-11 23:26:00,
2013-04-11 19:31:00,77.0,60.1,29.80,South,182,2.0,5.0,56,0.00,,,0.00,7,WeatherCatV1.10B1570,2013-04-11 23:31:00,
2013-04-11 19:36:00,76.9,60.0,29.80,SSE,167,3.0,7.0,56,0.00,,,0.00,0,WeatherCatV1.10B1570,2013-04-11 23:36:00,
2013-04-11 19:41:00,76.8,59.9,29.80,SSW,197,2.0,4.0,56,0.00,,,0.00,0,WeatherCatV1.10B1570,2013-04-11 23:41:00,
2013-04-11 19:46:00,76.7,59.8,29.79,SE,144,3.0,5.0,56,0.00,,,0.00,0,WeatherCatV1.10B1570,2013-04-11 23:46:00,
2013-04-11 19:51:00,76.4,60.0,29.79,South,190,3.0,5.0,57,0.00,,,0.00,0,WeatherCatV1.10B1570,2013-04-11 23:51:00,
2013-04-11 19:56:00,76.2,59.8,29.79,South,180,2.0,3.0,57,0.00,,,0.00,0,WeatherCatV1.10B1570,2013-04-11 23:56:00,
2013-04-11 20:01:00,76.1,60.2,29.79,South,170,3.0,5.0,58,0.00,,,0.00,0,WeatherCatV1.10B1570,2013-04-12 00:01:00,
2013-04-11 20:06:00,76.0,60.1,29.79,South,171,3.0,3.0,58,0.00,,,0.00,0,WeatherCatV1.10B1570,2013-04-12 00:06:00,
2013-04-11 20:11:00,76.0,60.1,29.79,South,172,2.0,3.0,58,0.00,,,0.00,0,WeatherCatV1.10B1570,2013-04-12 00:11:00,
2013-04-11 20:16:00,75.7,59.9,29.79,South,182,1.0,3.0,58,0.00,,,0.00,0,WeatherCatV1.10B1570,2013-04-12 00:16:00,
2013-04-11 20:21:00,75.5,60.2,29.79,South,183,2.0,3.0,59,0.00,,,0.00,0,WeatherCatV1.10B1570,2013-04-12 00:21:00,
2013-04-11 20:26:00,75.4,60.1,29.79,South,178,3.0,3.0,59,0.00,,,0.00,0,WeatherCatV1.10B1570,2013-04-12 00:26:00,
2013-04-11 20:31:00,75.4,60.1,29.78,SSE,161,4.0,5.0,59,0.00,,,0.00,0,WeatherCatV1.10B1570,2013-04-12 00:31:00,
2013-04-11 20:36:00,75.3,60.0,29.78,SSE,166,2.0,3.0,59,0.00,,,0.00,0,WeatherCatV1.10B1570,2013-04-12 00:36:00,
2013-04-11 20:41:00,75.0,60.2,29.78,SSE,155,1.0,3.0,60,0.00,,,0.00,0,WeatherCatV1.10B1570,2013-04-12 00:41:00,
2013-04-11 20:46:00,74.8,60.4,29.78,SSE,155,1.0,2.0,61,0.00,,,0.00,0,WeatherCatV1.10B1570,2013-04-12 00:46:00,
2013-04-11 20:51:00,74.5,60.2,29.78,South,191,3.0,5.0,61,0.00,,,0.00,0,WeatherCatV1.10B1570,2013-04-12 00:51:00,
2013-04-11 20:56:00,74.4,60.5,29.78,South,191,1.0,2.0,62,0.00,,,0.00,0,WeatherCatV1.10B1570,2013-04-12 00:56:00,
2013-04-11 21:01:00,74.2,60.3,29.78,South,191,2.0,2.0,62,0.00,,,0.00,0,WeatherCatV1.10B1570,2013-04-12 01:01:00,
2013-04-11 21:06:00,74.1,60.2,29.78,South,178,3.0,3.0,62,0.00,,,0.00,0,WeatherCatV1.10B1570,2013-04-12 01:06:00,
2013-04-11 21:11:00,73.9,60.5,29.78,South,178,2.0,2.0,63,0.00,,,0.00,0,WeatherCatV1.10B1570,2013-04-12 01:11:00,
2013-04-11 21:16:00,73.8,60.4,29.78,SSE,164,2.0,4.0,63,0.00,,,0.00,0,WeatherCatV1.10B1570,2013-04-12 01:16:00,
2013-04-11 21:21:00,73.8,60.4,29.79,South,169,1.0,3.0,63,0.00,,,0.00,0,WeatherCatV1.10B1570,2013-04-12 01:21:00,
2013-04-11 21:26:00,73.7,60.3,29.79,SSE,164,2.0,4.0,63,0.00,,,0.00,0,WeatherCatV1.10B1570,2013-04-12 01:26:00,
2013-04-11 21:31:00,73.6,60.2,29.79,SSE,159,2.0,3.0,63,0.00,,,0.00,0,WeatherCatV1.10B1570,2013-04-12 01:31:00,
2013-04-11 21:36:00,73.4,60.5,29.79,SSE,159,2.0,3.0,64,0.00,,,0.00,0,WeatherCatV1.10B1570,2013-04-12 01:36:00,
2013-04-11 21:41:00,73.4,60.5,29.79,SSE,159,1.0,3.0,64,0.00,,,0.00,0,WeatherCatV1.10B1570,2013-04-12 01:41:00,
2013-04-11 21:46:00,73.2,60.3,29.78,SSE,159,2.0,2.0,64,0.00,,,0.00,0,WeatherCatV1.10B1570,2013-04-12 01:46:00,
2013-04-11 21:51:00,73.2,60.7,29.78,SSE,159,2.0,2.0,65,0.00,,,0.00,0,WeatherCatV1.10B1570,2013-04-12 01:51:00,
2013-04-11 21:56:00,73.0,60.5,29.78,SSE,159,3.0,3.0,65,0.00,,,0.00,0,WeatherCatV1.10B1570,2013-04-12 01:56:00,
2013-04-11 22:01:00,72.9,60.4,29.78,SSE,159,2.0,3.0,65,0.00,,,0.00,0,WeatherCatV1.10B1570,2013-04-12 02:01:00,
2013-04-11 22:06:00,72.8,60.3,29.78,SSE,164,2.0,3.0,65,0.00,,,0.00,0,WeatherCatV1.10B1570,2013-04-12 02:06:00,
2013-04-11 22:11:00,72.7,60.7,29.78,SSE,160,2.0,4.0,66,0.00,,,0.00,0,WeatherCatV1.10B1570,2013-04-12 02:11:00,
2013-04-11 22:16:00,72.7,60.7,29.78,SSE,161,3.0,5.0,66,0.00,,,0.00,0,WeatherCatV1.10B1570,2013-04-12 02:16:00,
2013-04-11 22:21:00,72.7,60.7,29.78,SSE,163,3.0,4.0,66,0.00,,,0.00,0,WeatherCatV1.10B1570,2013-04-12 02:21:00,
2013-04-11 22:26:00,72.7,61.1,29.78,SSE,168,3.0,5.0,67,0.00,,,0.00,0,WeatherCatV1.10B1570,2013-04-12 02:26:00,
2013-04-11 22:31:00,72.8,61.2,29.78,SE,143,2.0,5.0,67,0.00,,,0.00,0,WeatherCatV1.10B1570,2013-04-12 02:31:00,
2013-04-11 22:36:00,72.7,61.5,29.77,SSE,168,3.0,3.0,68,0.00,,,0.00,0,WeatherCatV1.10B1570,2013-04-12 02:36:00,
2013-04-11 22:41:00,72.7,61.9,29.77,South,170,2.0,5.0,69,0.00,,,0.00,0,WeatherCatV1.10B1570,2013-04-12 02:41:00,
2013-04-11 22:46:00,72.7,62.3,29.77,SSE,162,3.0,5.0,70,0.00,,,0.00,0,WeatherCatV1.10B1570,2013-04-12 02:46:00,
2013-04-11 22:51:00,72.7,62.7,29.77,SSE,166,5.0,5.0,71,0.00,,,0.00,0,WeatherCatV1.10B1570,2013-04-12 02:51:00,
2013-04-11 22:56:00,72.8,63.2,29.77,SSW,202,2.0,4.0,72,0.00,,,0.00,0,WeatherCatV1.10B1570,2013-04-12 02:56:00,
2013-04-11 23:01:00,72.7,63.5,29.77,South,178,3.0,6.0,73,0.00,,,0.00,0,WeatherCatV1.10B1570,2013-04-12 03:01:00,
2013-04-11 23:06:00,72.7,63.9,29.78,SSW,211,3.0,5.0,74,0.00,,,0.00,0,WeatherCatV1.10B1570,2013-04-12 03:06:00,
2013-04-11 23:11:00,72.7,64.3,29.77,SSE,161,4.0,7.0,75,0.00,,,0.00,0,WeatherCatV1.10B1570,2013-04-12 03:11:00,
2013-04-11 23:16:00,72.8,64.4,29.78,SSE,161,1.0,6.0,75,0.00,,,0.00,0,WeatherCatV1.10B1570,2013-04-12 03:16:00,
2013-04-11 23:21:00,72.7,64.3,29.78,SSW,193,7.0,7.0,75,0.00,,,0.00,0,WeatherCatV1.10B1570,2013-04-12 03:21:00,
2013-04-11 23:26:00,72.8,64.4,29.78,South,178,7.0,7.0,75,0.00,,,0.00,0,WeatherCatV1.10B1570,2013-04-12 03:26:00,
2013-04-11 23:31:00,72.8,64.4,29.78,SSE,167,5.0,7.0,75,0.00,,,0.00,0,WeatherCatV1.10B1570,2013-04-12 03:31:00,
2013-04-11 23:36:00,72.8,64.4,29.78,SSW,192,5.0,9.0,75,0.00,,,0.00,0,WeatherCatV1.10B1570,2013-04-12 03:36:00,
2013-04-11 23:41:00,72.8,64.0,29.78,SSE,165,4.0,9.0,74,0.00,,,0.00,0,WeatherCatV1.10B1570,2013-04-12 03:41:00,
2013-04-11 23:46:00,72.8,63.6,29.78,South,190,3.0,9.0,73,0.00,,,0.00,0,WeatherCatV1.10B1570,2013-04-12 03:46:00,
2013-04-11 23:51:00,72.8,63.6,29.78,SSW,213,7.0,9.0,73,0.00,,,0.00,0,WeatherCatV1.10B1570,2013-04-12 03:51:00,
2013-04-11 23:56:00,72.7,63.5,29.77,South,184,5.0,8.0,73,0.00,,,0.00,0,WeatherCatV1.10B1570,2013-04-12 03:56:00,